Flag for Colombia Weather past 2 weeks in Cartagena, Colombia

Now
88 °F

Passing clouds.


Feels Like: 102 °F
Forecast: 79 / 90 °F
Wind: 15 mph from North

Location: Cartagena / Rafael Nunez

Current Time: Dec 28, 2014 at 3:11:50 PM

Latest Report: Dec 28, 2014 at 3:00 PM


Visibility: N/A

Pressure: 29.75 "Hg

Humidity: 75%

Dew point: 79 °F

Location of CartagenaLocation

Historic Weather in Cartagena — Graph

°F

Cartagena temperature yesterday

Maximum temperature yesterday: 91 °F (at 11:00 AM)
Minimum temperature yesterday: 75 °F (at 7:00 AM)
Average temperature yesterday: 83 °F

Past Weeks' High & Low Weather Summary

 TemperatureHumidityPressure
High91 °F (Dec 13, 2:00 PM)100% (Dec 18, 7:00 AM)29.93 "Hg (Dec 18, 7:00 AM)
Low75 °F (Dec 27, 7:00 AM)56% (Dec 21, 11:00 AM)29.69 "Hg (Dec 23, 2:00 AM)
Average83 °F81%29.81 "Hg
* Reported Dec 13 2:00 PM — Dec 28 2:00 PM, Cartagena, Weather by CustomWeather, © 2014

Note: Actual official high and low records may vary slightly from our data, if they occured in-between our weather recording intervals... More about our weather records

Advertising

Cartagena weather history for previous 24 hours

 ConditionsComfort  
Time TempWeatherWind HumidityBarometerVisibility
2:00 PM
Dec 28
88 °FPassing clouds.14 mph75%29.76 "HgN/A
1:00 PM86 °FPassing clouds.15 mph75%29.79 "HgN/A
12:00 PM91 °FPassing clouds.8 mph63%29.82 "HgN/A
11:00 AM88 °FPassing clouds.6 mph70%29.85 "HgN/A
10:00 AM86 °FSunny.3 mph75%29.86 "Hg10 mi
9:00 AM82 °FSunny.3 mph79%29.86 "Hg10 mi
8:00 AM81 °FSunny.2 mph79%29.85 "Hg10 mi
7:00 AM77 °FSunny.2 mph89%29.83 "Hg10 mi
6:00 AM77 °FClear.2 mph89%29.77 "Hg10 mi
5:00 AM77 °FClear.2 mph89%29.79 "Hg10 mi
4:00 AM77 °FClear.3 mph89%29.79 "Hg10 mi
3:00 AM77 °FClear.2 mph89%29.79 "Hg10 mi
2:00 AM79 °FClear.5 mph84%29.79 "Hg10 mi
1:00 AM79 °FClear.5 mph89%29.77 "Hg10 mi
12:00 AM79 °FClear.5 mph89%29.82 "Hg10 mi
11:00 PM
Dec 27
79 °FClear.6 mph89%29.83 "Hg10 mi
10:00 PM81 °FClear.7 mph89%29.85 "Hg10 mi
9:00 PM81 °FClear.8 mph84%29.84 "Hg10 mi
8:00 PM81 °FClear.6 mph84%29.82 "Hg10 mi
7:00 PM81 °FClear.8 mph84%29.80 "Hg10 mi
6:00 PM82 °FClear.7 mph79%29.78 "Hg10 mi
5:00 PM86 °FSunny.7 mph70%29.77 "Hg10 mi
4:00 PM88 °FSunny.12 mph66%29.75 "Hg10 mi
3:00 PM91 °FPassing clouds.9 mph59%29.76 "HgN/A
Weather by CustomWeather, © 2014

See weather overviewHow to use our weather pages